Regional Weather Roundup
Issued by NWS

Home | Current Version | Previous Version | Text Only | Print | Product List | Glossary On
Versions: 1 2 3 4 5 6 7 8 9 10 11 12 13 14 15 16 17 18 19 20 21 22 23 24 25 26 27 28 29 30 31 32 33 34 35 36 37 38 39 40 41 42 43 44 45 46 47 48 49 50
000
ASHW40 PHFO 301110
RWRHI

WEATHER ROUNDUP FOR HAWAII
NATIONAL WEATHER SERVICE HONOLULU HI
100 AM HST FRI JAN 30 2015

THIS IS AN AUTOMATED REPORT THAT HAS NOT BEEN QUALITY CONTROLLED.

NOTE..."FAIR" INDICATES FEW OR NO CLOUDS BELOW 12,000 FEET WITH NO
SIGNIFICANT WEATHER AND/OR OBSTRUCTIONS TO VISIBILITY.

* - THESE SITES REPORT LIMITED FIELDS

HIZ001>004-301200-
KAUAI-NIIHAU-

CITY           SKY/WX    TMP DP  RH WIND       PRES   REMARKS
LIHUE APT      MOCLDY    67  62  84 W3        29.92S
PORT ALLEN*      N/A     70 N/A N/A NW8         N/A
POIPU*           N/A     68 N/A N/A W3          N/A
PRINCEVILLE*     N/A     68 N/A N/A MISG        N/A
KOKOLE POINT*  NOT AVBL
MOLOAA DAIRY*  NOT AVBL
WAIMEA HTS*    NOT AVBL
PUU OPAE*      NOT AVBL
PUU LUA*       NOT AVBL
MAKAHA RIDGE*  NOT AVBL
$$

HIZ005>011-301200-
OAHU-

CITY           SKY/WX    TMP DP  RH WIND       PRES   REMARKS
HONOLULU       PTCLDY    70  66  87 W5        29.91S
KALAELOA       CLEAR     71  66  84 NW10      29.92F
KANEOHE MCB    PTCLDY    72  65  79 VRB6      29.86F
WHEELER FIELD  MOCLDY    68  64  86 NW6       29.93S
BELLOWS*       NOT AVBL
KAHUKU*        NOT AVBL
WHEELER*       NOT AVBL
WAIANAE HARBOR NOT AVBL
DILLINGHAM*      N/A     72  64  78 MISG        N/A
KAHUKU TRN*      N/A     70  64  83 W3G10       N/A
KAWAILOA*        N/A     64  64 100 W5G16       N/A
KII*             N/A     73  64  73 SW7G13      N/A
MAKUA RANGE*     N/A     73  64  73 W3          N/A
OAHU FOREST NW NOT AVBL
SCHOFIELD BRK*   N/A     66  64  94 MISG        N/A
SCHOFIELD S*   NOT AVBL
WAIANAE VLY*   NOT AVBL
KUAOKALA*      NOT AVBL
HONOULIUULI*   NOT AVBL
MOKUOLOE IS*   NOT AVBL
PALEHUA*       NOT AVBL
WAIAWA PHB*    NOT AVBL
$$

HIZ012>013-301200-
MOLOKAI-

CITY           SKY/WX    TMP DP  RH WIND       PRES   REMARKS
MOLOKAI AIRPT  PTCLDY    70  68  93 S5        29.93S
KALAUPAPA      NOT AVBL
MAKAPULAPAI*   NOT AVBL
MOLOKAI 1*     NOT AVBL
PUU ALII*      NOT AVBL
$$

HIZ016-301200-
KAHOOLAWE-

CITY           SKY/WX    TMP DP  RH WIND       PRES   REMARKS
KAHOOLAWE*     NOT AVBL
HAKIOAWA*      NOT AVBL
HONOKANAIA*      N/A     74  67  77 S5G10     29.94F
KANELOA*         N/A     73  68  83 MISG      29.16S
KEALIALALO*    NOT AVBL
LUA MAKIKA*    NOT AVBL
$$

HIZ014>015-301200-
LANAI-

CITY           SKY/WX    TMP DP  RH WIND       PRES   REMARKS
LANAI CITY     MOCLDY    68  68 100 SW6       29.98S
LANAI 1*       NOT AVBL
$$

HIZ017>028-301200-
MAUI-

CITY           SKY/WX    TMP DP  RH WIND       PRES   REMARKS
KAHULUI        CLEAR     72  66  81 CALM      29.91S
KAPALUA-W MAUI NOT AVBL
HANA AIRPORT   CLEAR     66  64  94 S6        29.93S
HANA*          NOT AVBL
HALEAKALA SUMM   N/A     37  27  65 SW14G30     N/A  WCI  29
MAALAEA BAY*   NOT AVBL
HALEAKALA*     NOT AVBL
KAUPO GAP*     NOT AVBL
KULA 1*          N/A    N/A N/A N/A S12G18      N/A
$$

HIZ023>026-301200-
BIG ISLAND OF HAWAII COAST AND LOWER SLOPES-

CITY           SKY/WX    TMP DP  RH WIND       PRES   REMARKS
KAILUA KONA    PTCLDY    72  65  78 S5        29.91F
HILO           CLEAR     67  59  75 SW7       29.91S
HONOKAA*       NOT AVBL
KAWAIHAE MWT*  NOT AVBL
KAWAIHAE*        N/A     75 N/A N/A NW3         N/A
SOUTH POINT*   NOT AVBL
UPOLU AIRPORT* NOT AVBL
KAMUELA*       NOT AVBL
HAKALAU*         N/A     45  32  61 SW7         N/A
KALOKO-HONOKO* NOT AVBL
PALI 2*          N/A     64  57  77 NW3G10      N/A
KEALAKOMO*       N/A     72  64  78 NW3         N/A
KAUPULEHU*     NOT AVBL
KAPAPALA*        N/A     56  51  83 N1G9        N/A
LOWER KAHUKU*  NOT AVBL
PUHE CS*       NOT AVBL
PUHO CS*       NOT AVBL
PTA KEAMUKU*     N/A     57  57 100 CALM        N/A
WAIKOLOA*      NOT AVBL
$$

HIZ027>028-301200-
BIG ISLAND OF HAWAII INTERIOR AND SUMMMITS-

CITY           SKY/WX    TMP DP  RH WIND       PRES   REMARKS
BRADSHAW FIELD CLOUDY    53  19  25 NW3       30.25S
MK VISITOR CEN NOT AVBL
MAUNA KEA*       N/A     28  -2  26 NW25        N/A  WCI  14
MAUNA LOA*       N/A     37  -2  18 MISG        N/A
MAUNA LOA 1*   NOT AVBL
PTA KIPUKA*      N/A    N/A N/A N/A S3G12       N/A
PTA RANGE 17*    N/A    N/A N/A N/A E5          N/A
PTA WEST*        N/A     55  43  62 SE13        N/A
NENE CABIN*    NOT AVBL
AHUMOA*        NOT AVBL
PTA PORTABLE*  NOT AVBL
PUU MALI*      NOT AVBL
$$

HIC003-301200-
NORTHWEST ISLANDS-

CITY           SKY/WX    TMP DP  RH WIND       PRES   REMARKS
MIDWAY ISLAND  MOCLDY    55  43  62 N9        30.14S
MIDWAY NOS*    NOT AVBL
FRENCH FRIGATE NOT AVBL
$$

PHZ110>124-180-301200-
BUOY REPORTS

STATION/POSITION TIME  TEMP    WIND        PRES    WAVE   SWELL
                       AIR SEA DIR/SP/G            HT/PER HT/DIR
                 (UTC) (F)     (DEG/KT/KT) (MB)    (FT/S) (FT/D)
BUOY 51001       NOT AVBL
BUOY 51101       1100   65 72  300/ 19/ 23 1013.0F  13/12  10/320
BUOY 51100       1000          240/ 17       N/A
BUOY 51003       1000   76 78  310/  8/  8 1013.8R   6/13   7
BUOY 51004       1013   76 78   80/  6/  8 1013.1F   6/14   5/350
BARBERS PT BUOY  NOT AVBL
WAIMEA BAY BUOY  1100      77                N/A     5/13   3/320
KAILUA BAY BUOY  1100      76                N/A     3/12   2/350
LANAI BUOY       1000      77                N/A     3/13   2/290
BARBERS PT 2     1100      77                N/A     5/13   3/300
PAUWELA MAUI     1100      76                N/A     6/12   5/320
HILO             1100      76                N/A     5/13   3/340
KANEOHE BAY BUOY 1100      75                N/A     3/ 8   2/ 10
HANALEI KAUAI    NOT AVBL
KAHULUI HARBOR   1100   72 76  170/  5/  7 1012.4F
HONOLULU HARBOR  1100   72 76  330/  3/  5 1012.8F
KILO NALU        NOT AVBL
HILO HARBOR      NOT AVBL
MOKUOLOE         1100      75              1012.6F
NAWILIWILI       1100      76                N/A
WHOTS BUOY       NOT AVBL
BUOY 51028       NOT AVBL
$$

......................KEY........................................
  SKY/WX - SKY CONDITIONS/PRESENT WEATHER
  TMP    - TEMPERATURE IN FAHRENHEIT
  DWPT   - DEWPOINT IN FAHRENHEIT
  RH     - RELATIVE HUMIDITY IN PERCENT
  WIND   - DIRECTION AND SPEED /MPH FOR ISLANDS...KTS FOR BUOYS/
  PRES   - MEAN SEA LEVEL PRESSURE IN INCHES OF HG
  VSB    - VISIBILITY IN MILES
  HX     - HEAT INDEX
  WCI    - WIND CHILL INDEX
  VRB    - VARIABLE WIND DIRECTION
  N/A    - NOT AVAILABLE


USA.gov is the U.S. government's official web portal to all federal, state and local government web resources and services.